TimeCST,TemperatureF,Dew PointF,Humidity,Sea Level PressureIn,VisibilityMPH,Wind Direction,Wind SpeedMPH,Gust SpeedMPH,PrecipitationIn,Events,Conditions,WindDirDegrees,DateUTC
12:13 AM,-16.6,-25.6,64,30.53,10.0,North,3.5,-,N/A,,Clear,360,2013-01-24 06:13:00
12:33 AM,-16.6,-27.4,58,30.53,10.0,Calm,Calm,-,N/A,,Clear,0,2013-01-24 06:33:00
12:53 AM,-16.6,-27.4,58,30.53,10.0,NNE,3.5,-,N/A,,Clear,20,2013-01-24 06:53:00
1:13 AM,-16.6,-27.4,58,30.53,10.0,Calm,Calm,-,N/A,,Clear,0,2013-01-24 07:13:00
1:33 AM,-16.6,-27.4,58,30.54,10.0,North,3.5,-,N/A,,Clear,360,2013-01-24 07:33:00
1:53 AM,-18.4,-27.4,63,30.55,10.0,Calm,Calm,-,N/A,,Clear,0,2013-01-24 07:53:00
2:13 AM,-18.4,-29.2,58,30.56,10.0,Calm,Calm,-,N/A,,Clear,0,2013-01-24 08:13:00
2:33 AM,-18.4,-29.2,58,30.57,10.0,Calm,Calm,-,N/A,,Clear,0,2013-01-24 08:33:00
2:53 AM,-20.2,-29.2,63,30.56,10.0,Calm,Calm,-,N/A,,Clear,0,2013-01-24 08:53:00
3:13 AM,-20.2,-29.2,63,30.56,10.0,Calm,Calm,-,N/A,,Clear,0,2013-01-24 09:13:00
3:33 AM,-20.2,-29.2,63,30.56,10.0,Calm,Calm,-,N/A,,Clear,0,2013-01-24 09:33:00
3:53 AM,-20.2,-31.0,58,30.57,10.0,Calm,Calm,-,N/A,,Clear,0,2013-01-24 09:53:00
4:13 AM,-22.0,-31.0,63,30.57,10.0,Calm,Calm,-,N/A,,Clear,0,2013-01-24 10:13:00
4:33 AM,-23.8,-32.8,63,30.56,10.0,Calm,Calm,-,N/A,,Clear,0,2013-01-24 10:33:00
4:53 AM,-23.8,-32.8,63,30.56,10.0,Calm,Calm,-,N/A,,Clear,0,2013-01-24 10:53:00
5:13 AM,-23.8,-32.8,63,30.56,10.0,Calm,Calm,-,N/A,,Clear,0,2013-01-24 11:13:00
5:33 AM,-23.8,-34.6,57,30.57,10.0,Calm,Calm,-,N/A,,Clear,0,2013-01-24 11:33:00
5:53 AM,-25.6,-34.6,63,30.57,10.0,Calm,Calm,-,N/A,,Clear,0,2013-01-24 11:53:00
6:13 AM,-27.4,-36.4,62,30.58,10.0,Calm,Calm,-,N/A,,Clear,0,2013-01-24 12:13:00
6:33 AM,-27.4,-36.4,62,30.58,10.0,Calm,Calm,-,N/A,,Clear,0,2013-01-24 12:33:00
6:53 AM,-27.4,-36.4,62,30.58,10.0,Calm,Calm,-,N/A,,Clear,0,2013-01-24 12:53:00
7:13 AM,-29.2,-36.4,68,30.58,10.0,Calm,Calm,-,N/A,,Clear,0,2013-01-24 13:13:00
7:33 AM,-27.4,-36.4,62,30.58,10.0,Calm,Calm,-,N/A,,Clear,0,2013-01-24 13:33:00
7:53 AM,-27.4,-36.4,62,30.58,10.0,Calm,Calm,-,N/A,,Clear,0,2013-01-24 13:53:00
8:13 AM,-25.6,-34.6,63,30.58,10.0,Calm,Calm,-,N/A,,Scattered Clouds,0,2013-01-24 14:13:00
8:33 AM,-23.8,-32.8,63,30.57,10.0,Calm,Calm,-,N/A,,Scattered Clouds,0,2013-01-24 14:33:00
8:53 AM,-20.2,-29.2,63,30.56,10.0,Calm,Calm,-,N/A,,Scattered Clouds,0,2013-01-24 14:53:00
9:13 AM,-16.6,-27.4,58,30.55,10.0,Calm,Calm,-,N/A,,Clear,0,2013-01-24 15:13:00
9:33 AM,-14.8,-23.8,64,30.56,10.0,Calm,Calm,-,N/A,,Clear,0,2013-01-24 15:33:00
9:53 AM,-11.2,-23.8,54,30.56,10.0,Calm,Calm,-,N/A,,Clear,0,2013-01-24 15:53:00
10:13 AM,-7.6,-20.2,54,30.56,10.0,Calm,Calm,-,N/A,,Clear,0,2013-01-24 16:13:00
10:33 AM,-5.8,-18.4,55,30.55,10.0,Calm,Calm,-,N/A,,Clear,0,2013-01-24 16:33:00
10:53 AM,-2.2,-13.0,60,30.54,10.0,WSW,4.6,-,N/A,,Clear,240,2013-01-24 16:53:00
11:13 AM,-2.2,-11.2,66,30.53,10.0,Calm,Calm,-,N/A,,Clear,0,2013-01-24 17:13:00
11:33 AM,-0.4,-11.2,60,30.53,10.0,SW,5.8,-,N/A,,Clear,230,2013-01-24 17:33:00
11:54 AM,1.4,-13.0,51,30.52,10.0,SW,10.4,-,N/A,,Clear,220,2013-01-24 17:54:00
12:13 PM,1.4,-13.0,51,30.51,10.0,SW,8.1,-,N/A,,Clear,220,2013-01-24 18:13:00
12:33 PM,1.4,-13.0,51,30.50,10.0,WSW,4.6,-,N/A,,Clear,240,2013-01-24 18:33:00
12:53 PM,1.4,-11.2,56,30.49,10.0,SW,5.8,-,N/A,,Clear,230,2013-01-24 18:53:00
1:13 PM,1.4,-11.2,56,30.48,10.0,WSW,5.8,-,N/A,,Clear,240,2013-01-24 19:13:00
1:33 PM,1.4,-9.4,61,30.47,10.0,SW,5.8,-,N/A,,Clear,230,2013-01-24 19:33:00
1:53 PM,1.4,-9.4,61,30.46,10.0,SW,4.6,-,N/A,,Clear,230,2013-01-24 19:53:00
2:13 PM,1.4,-9.4,61,30.46,10.0,SW,5.8,-,N/A,,Clear,230,2013-01-24 20:13:00
2:33 PM,1.4,-7.6,66,30.45,10.0,SW,5.8,-,N/A,,Clear,230,2013-01-24 20:33:00
2:53 PM,1.4,-7.6,66,30.44,10.0,SW,8.1,-,N/A,,Clear,220,2013-01-24 20:53:00
3:13 PM,1.4,-7.6,66,30.42,10.0,SSW,6.9,-,N/A,,Clear,210,2013-01-24 21:13:00
3:33 PM,1.4,-7.6,66,30.41,10.0,SW,8.1,-,N/A,,Clear,220,2013-01-24 21:33:00
3:53 PM,1.4,-9.4,61,30.40,10.0,WSW,4.6,-,N/A,,Clear,240,2013-01-24 21:53:00
4:13 PM,1.4,-9.4,61,30.38,10.0,SW,4.6,-,N/A,,Scattered Clouds,230,2013-01-24 22:13:00
4:33 PM,1.4,-9.4,61,30.38,10.0,Calm,Calm,-,N/A,,Scattered Clouds,0,2013-01-24 22:33:00
4:53 PM,1.4,-9.4,61,30.36,10.0,WSW,3.5,-,N/A,,Scattered Clouds,250,2013-01-24 22:53:00
5:13 PM,1.4,-9.4,61,30.36,10.0,Calm,Calm,-,N/A,,Mostly Cloudy,0,2013-01-24 23:13:00
5:33 PM,1.4,-9.4,61,30.35,10.0,Calm,Calm,-,N/A,,Mostly Cloudy,0,2013-01-24 23:33:00
5:53 PM,1.4,-9.4,61,30.34,10.0,Calm,Calm,-,N/A,,Mostly Cloudy,0,2013-01-24 23:53:00
6:13 PM,1.4,-9.4,61,30.34,10.0,Calm,Calm,-,N/A,,Mostly Cloudy,0,2013-01-25 00:13:00
6:33 PM,1.4,-9.4,61,30.33,10.0,Calm,Calm,-,N/A,,Overcast,0,2013-01-25 00:33:00
6:53 PM,1.4,-9.4,61,30.32,10.0,Calm,Calm,-,N/A,,Mostly Cloudy,0,2013-01-25 00:53:00
7:13 PM,1.4,-7.6,66,30.30,1.8,Calm,Calm,-,N/A,Snow,Light Snow,0,2013-01-25 01:13:00
7:33 PM,1.4,-5.8,72,30.30,1.0,Calm,Calm,-,N/A,Snow,Light Snow,0,2013-01-25 01:33:00
7:53 PM,1.4,-5.8,72,30.29,0.8,Calm,Calm,-,N/A,Snow,Snow,0,2013-01-25 01:53:00
8:13 PM,1.4,-5.8,72,30.27,0.8,Calm,Calm,-,N/A,Snow,Snow,0,2013-01-25 02:13:00
8:33 PM,1.4,-5.8,72,30.24,0.8,Calm,Calm,-,N/A,Snow,Snow,0,2013-01-25 02:33:00
8:53 PM,1.4,-5.8,72,30.23,0.8,Calm,Calm,-,N/A,Snow,Snow,0,2013-01-25 02:53:00
9:13 PM,3.2,-2.2,78,30.22,1.0,South,5.8,-,N/A,Snow,Light Snow,170,2013-01-25 03:13:00
9:33 PM,5.0,-0.4,78,30.21,1.2,South,6.9,-,N/A,Snow,Light Snow,190,2013-01-25 03:33:00
9:53 PM,6.8,-0.4,72,30.21,0.8,South,3.5,-,N/A,Snow,Snow,180,2013-01-25 03:53:00
10:13 PM,6.8,1.4,79,30.20,1.2,South,4.6,-,N/A,Snow,Light Snow,180,2013-01-25 04:13:00
10:33 PM,6.8,1.4,79,30.18,1.0,South,6.9,-,N/A,Snow,Snow,180,2013-01-25 04:33:00
10:53 PM,6.8,1.4,79,30.16,1.8,South,4.6,-,N/A,Snow,Light Snow,170,2013-01-25 04:53:00
11:13 PM,6.8,1.4,79,30.14,1.2,South,3.5,-,N/A,Snow,Light Snow,180,2013-01-25 05:13:00
11:33 PM,8.6,3.2,79,30.13,3.0,South,8.1,-,N/A,Snow,Light Snow,180,2013-01-25 05:33:00
11:53 PM,8.6,3.2,79,30.12,2.0,South,9.2,-,N/A,Snow,Light Snow,190,2013-01-25 05:53:00